CAPE
0 0 0 0 0 0 0 0 0 0 0 0 0 0 0 0 0 0 0 0 0 0 0 0 0 0 0 0 0 0 0 0 0 0 0 0 0 0 0 0 0 0 0 0 0 0 0
0 0 0 0 0 0 0 0 0 0 0 0 0 0 0 0 0 0 0 0 0 0 0 0 0 0 0 0 0 0 0 0 0 0 0 0 0 0 0 0 0 0 0 0 0 0 0
0 0 0 0 0 0 0 0 0 0 0 0 0 0 0 0 0 0 0 0 0 0 0 0 0 0 0 0 0 0 0 0 0 0 0 0 0 0 0 0 0 0 0 0 0 0 0
0 1 9 5 0 0 0 3 6 2 0 0 0 0 0 0 0 0 0 0 0 0 0 0 0 0 0 0 0 0 0 0 0 0 0 0 0 0 0 0 0 0 0 0 0 0 0
11 7 1 0 2 5 5 3 1 0 0 0 0 0 0 0 0 0 0 0 0 0 0 0 0 0 0 0 0 0 0 0 0 0 0 0 0 0 0 0 0 0 0 0 0 0 0
3 0 0 1 1 0 6 9 8 2 0 0 0 0 0 0 0 0 0 0 0 0 0 0 0 0 0 0 0 0 0 0 0 0 0 0 0 0 0 0 0 1 1 0 0 0 0
0 2 0 0 0 0 9 13 14 5 0 0 0 0 0 0 0 0 0 0 0 0 0 0 0 0 0 0 0 0 0 0 0 0 0 0 0 0 0 0 0 0 17 2 0 0 0
12 7 1 0 0 1 4 8 7 3 0 0 0 0 0 0 0 0 0 0 0 0 0 0 0 0 0 0 0 0 0 0 0 0 0 0 1 0 0 0 0 0 10 8 11 6 0
6 9 3 0 0 0 8 6 2 2 1 0 0 0 0 0 0 0 0 0 0 0 0 0 0 0 0 0 0 0 0 0 0 0 0 0 0 14 2 0 0 0 6 0 0 1 0
12 13 7 0 0 2 1 2 3 3 1 0 0 0 0 0 0 0 0 0 0 0 0 0 0 0 0 0 0 0 0 0 0 0 0 1 14 0 32 2 0 0 0 0 1 0 0
11 6 15 3 0 1 0 0 1 0 0 0 0 0 0 0 0 0 0 0 0 0 0 0 0 0 0 0 0 0 0 0 0 0 0 0 0 1 0 4 23 0 0 0 0 0 0
6 7 18 8 0 0 0 0 1 0 0 0 0 0 0 0 0 0 0 0 0 0 0 0 0 0 0 0 0 0 0 0 0 0 0 0 0 0 0 5 10 0 0 0 0 0 1
7 4 15 15 0 0 0 0 0 0 0 0 0 0 0 0 0 0 0 0 0 0 0 0 0 0 0 0 0 0 0 0 0 0 0 0 0 0 0 2 30 25 0 0 1 1 0
11 8 9 14 1 0 0 0 0 0 0 0 0 0 0 0 0 0 0 0 0 0 0 0 0 0 0 0 0 0 0 0 0 0 0 0 0 0 0 0 2 1 16 0 0 15 0
9 14 11 15 5 0 0 0 0 0 0 0 0 0 0 0 0 0 0 0 0 0 0 0 0 0 0 0 0 0 0 0 0 0 0 0 0 0 0 0 0 47 6 0 2 0 0
6 13 8 18 6 1 1 0 0 0 0 0 0 0 0 0 0 0 0 0 0 0 0 0 0 0 0 0 0 0 0 1 0 0 0 0 0 0 0 0 0 1 1 3 0 0 0
11 12 13 14 11 0 1 0 0 0 0 0 0 0 0 0 0 0 0 0 0 0 0 0 0 0 0 0 0 0 0 0 2 0 0 0 0 0 0 0 0 0 0 0 0 0 4
17 10 6 9 11 4 3 0 0 0 0 0 0 0 0 0 0 0 0 0 0 0 0 0 0 0 0 0 0 0 0 0 0 0 0 0 0 0 0 0 0 0 0 0 0 0 0
15 14 7 8 10 9 2 0 0 0 0 0 0 0 0 0 0 0 0 0 0 0 0 0 0 0 0 0 0 0 0 0 0 0 0 0 0 0 0 0 0 0 0 0 0 0 0
22 20 8 10 6 7 3 1 0 0 0 0 0 0 0 0 0 0 0 0 0 0 0 0 0 0 0 0 0 0 0 0 0 0 0 0 0 0 0 0 0 0 0 0 0 0 0
22 21 13 12 10 7 11 2 0 0 0 0 0 0 0 0 0 0 0 0 0 0 0 0 0 0 0 0 0 0 0 0 0 0 0 0 0 0 0 0 0 0 0 0 0 0 0
20 19 8 15 10 7 13 0 3 0 0 0 0 0 0 0 0 0 0 0 0 0 0 0 0 0 0 0 0 0 0 0 0 0 0 0 0 0 0 0 0 0 0 0 0 0 0
19 17 17 12 12 8 17 8 1 5 0 0 0 0 0 0 0 0 0 0 0 0 0 0 0 0 0 0 0 0 0 0 0 0 0 0 0 0 0 0 0 0 0 0 0 0 0
31 17 16 13 15 10 21 13 2 5 0 0 0 0 0 0 0 0 0 0 0 0 0 0 0 0 0 0 0 0 0 0 0 0 0 0 0 0 0 0 0 0 0 0 0 0 0
24 17 20 22 22 13 18 20 4 3 0 0 0 0 0 0 0 0 0 0 0 0 0 0 0 0 0 0 0 0 0 0 0 0 0 0 0 0 0 0 0 0 0 0 0 0 0
39 27 12 20 27 10 13 19 11 3 4 0 0 0 0 0 0 0 0 0 0 0 0 0 0 0 0 0 0 0 0 0 0 0 0 0 0 0 0 0 0 0 0 0 0 0 0
31 27 18 10 24 13 6 13 16 2 3 0 0 0 0 0 0 0 0 0 0 0 0 0 0 0 0 0 0 0 0 0 0 0 0 0 0 0 0 0 0 0 0 0 0 0 0
24 30 19 15 21 22 7 12 15 10 0 0 0 0 0 0 0 0 0 0 0 0 0 0 0 0 0 0 0 0 0 0 0 0 0 0 0 0 0 0 0 0 0 0 0 0 0
8 25 18 12 12 20 13 19 12 13 5 1 0 0 0 0 0 0 0 0 0 0 0 0 0 0 0 0 0 0 0 0 0 0 0 0 0 0 0 0 0 0 0 0 0 0 0
CIN
-0 -0 -0 -0 -0 -0 -0 -0 -0 -0 -0 -0 -0 -0 -0 -0 -0 -0 -0 -0 -0 -0 -0 -0 -0 -0 -0 -0 -0 -0 -0 -0 -0 -0 -0 -0 -0 -0 -0 -0 -0 -0 -0 -0 -0 -0 -0
-0 -0 -0 -0 -0 -0 -0 -0 -0 -0 -0 -0 -0 -0 -0 -0 -0 -0 -0 -0 -0 -0 -0 -0 -0 -0 -0 -0 -0 -0 -0 -0 -0 -0 -0 -0 -0 -0 -0 -0 -0 -0 -0 -0 -0 -0 -0
-0 -0 -0 -0 -0 -0 -0 -0 -0 -0 -0 -0 -0 -0 -0 -0 -0 -0 -0 -0 -0 -0 -0 -0 -0 -0 -0 -0 -0 -0 -0 -0 -0 -0 -0 -0 -0 -0 -0 -0 -0 -0 -0 -0 -0 -0 -0
-0 -0 -1 -1 -0 -0 -0 -0 -0 -0 -0 -0 -0 -0 -0 -0 -0 -0 -0 -0 -0 -0 -0 -0 -0 -0 -0 -0 -0 -0 -0 -0 -0 -0 -0 -0 -0 -0 -0 -0 -0 -0 -0 -0 -0 -0 -0
-3 -6 -3 -0 -0 -0 -0 -0 -1 -0 -0 -0 -0 -0 -0 -0 -0 -0 -0 -0 -0 -0 -0 -0 -0 -0 -0 -0 -0 -0 -0 -0 -0 -0 -0 -0 -0 -0 -0 -0 -0 -1 -0 -0 -0 -0 -0
-4 -0 -0 -0 -0 -0 -0 -2 -3 -4 -0 -0 -0 -0 -0 -0 -0 -0 -0 -0 -0 -0 -0 -0 -0 -0 -0 -0 -0 -0 -0 -0 -0 -0 -0 -0 -0 -0 -0 -0 -0 -0 -0 -0 -0 -0 -0
-0 -1 -0 -0 -0 -0 -0 -3 -3 -4 -0 -0 -0 -0 -0 -0 -0 -0 -0 -0 -0 -0 -0 -0 -0 -0 -0 -0 -0 -0 -0 -0 -0 -0 -0 -0 -0 -0 -0 -0 -0 -0 -5 -1 -0 -0 -0
-6 -2 -2 -0 -0 -0 -0 -0 -1 -2 -0 -0 -0 -0 -0 -0 -0 -0 -0 -0 -0 -0 -0 -0 -0 -0 -0 -0 -0 -0 -0 -0 -0 -0 -0 -0 -1 -0 -0 -0 -0 -0 -8 -11 -7 -14 -2
-5 -5 -6 -0 -0 -0 -0 -0 -0 -1 -1 -0 -0 -0 -0 -0 -0 -0 -0 -0 -0 -0 -0 -0 -0 -0 -0 -0 -0 -0 -3 -0 -0 -0 -0 -0 -0 -28 -7 -0 -0 -0 -6 -0 -0 -37 -0
-1 -2 -5 -0 -0 -0 -0 -0 -0 -0 -0 -0 -0 -0 -0 -0 -0 -0 -0 -0 -0 -0 -0 -0 -0 -0 -0 -0 -0 -11 -0 -0 -0 -0 -0 -42 -15 -4 -12 -4 -0 -0 -0 -0 -0 -0 -0
-0 -0 -4 -3 -0 -0 -0 -0 -0 -0 -0 -0 -0 -0 -0 -0 -0 -0 -0 -0 -0 -0 -0 -0 -0 -0 -0 -0 -0 -0 -0 -0 -0 -0 -0 -0 -0 -1 -0 -9 -4 -0 -0 -0 -0 -50 -0
-0 -0 -1 -2 -0 -0 -0 -0 -0 -0 -0 -0 -0 -0 -0 -0 -0 -0 -0 -0 -0 -0 -0 -0 -0 -0 -0 -0 -0 -0 -0 -0 -0 -0 -0 -7 -1 -0 -0 -57 -62 -0 -0 -0 -0 -0 -0
-1 -1 -1 -1 -0 -0 -0 -0 -0 -0 -0 -0 -0 -0 -0 -0 -0 -0 -0 -0 -0 -0 -0 -0 -0 -0 -0 -0 -0 -0 -0 -0 -0 -0 -0 -0 -3 -8 -0 -9 -35 -25 -3 -0 -3 -5 -0
-2 -1 -1 -1 -1 -0 -0 -0 -0 -0 -0 -0 -0 -0 -0 -0 -0 -0 -0 -0 -0 -0 -0 -0 -0 -0 -0 -0 -0 -0 -0 -0 -0 -0 -0 -0 -0 -0 -2 -0 -6 -87 -11 -0 -2 -7 -0
-0 -2 -2 -3 -3 -0 -0 -0 -0 -0 -0 -0 -0 -0 -0 -0 -0 -0 -0 -0 -0 -0 -0 -0 -0 -0 -0 -0 -0 -0 -0 -1 -0 -0 -0 -0 -0 -0 -3 -0 -0 -36 -20 -0 -10 -3 -0
-0 -1 -2 -3 -5 -0 -0 -0 -0 -0 -0 -0 -0 -0 -0 -0 -0 -0 -0 -0 -0 -0 -0 -0 -0 -0 -0 -0 -0 -0 -0 -4 -0 -0 -0 -0 -0 -0 -0 -0 -0 -0 -0 -9 -0 -0 -0
-1 -0 -2 -2 -2 -0 -0 -0 -0 -0 -0 -0 -0 -0 -0 -0 -0 -0 -0 -0 -0 -0 -0 -0 -0 -0 -0 -0 -0 -0 -0 -0 -6 -0 -0 -0 -0 -0 -0 -0 -0 -0 -0 -0 -0 -0 -12
-1 -3 -1 -2 -3 -2 -1 -0 -0 -0 -0 -0 -0 -0 -0 -0 -0 -0 -0 -0 -0 -0 -0 -0 -0 -0 -0 -0 -0 -0 -0 -0 -0 -0 -0 -0 -0 -0 -0 -0 -0 -0 -0 -0 -0 -0 -0
-3 -4 -2 -2 -2 -2 -2 -0 -0 -0 -0 -0 -0 -0 -0 -0 -0 -0 -0 -0 -0 -0 -0 -0 -0 -0 -0 -0 -0 -0 -0 -0 -0 -0 -2 -0 -0 -0 -0 -0 -0 -0 -0 -0 -0 -0 -0
-1 -2 -2 -1 -0 -1 -2 -2 -0 -0 -0 -0 -0 -0 -0 -0 -0 -0 -0 -0 -0 -0 -0 -0 -0 -0 -0 -0 -0 -0 -0 -0 -0 -0 -0 -0 -0 -0 -0 -0 -0 -0 -0 -0 -0 -0 -0
-2 -3 -4 -2 -0 -2 -1 -2 -0 -0 -0 -0 -0 -0 -0 -0 -0 -0 -0 -0 -0 -0 -0 -0 -0 -0 -0 -0 -0 -0 -0 -0 -0 -0 -0 -0 -0 -0 -0 -0 -0 -0 -0 -0 -0 -0 -0
-3 -3 -6 -2 -4 -2 -1 -0 -1 -0 -0 -0 -0 -0 -0 -0 -0 -0 -0 -0 -0 -0 -0 -0 -0 -0 -0 -0 -0 -0 -0 -0 -0 -0 -0 -0 -0 -0 -0 -0 -0 -0 -0 -0 -0 -0 -0
-4 -2 -2 -4 -4 -2 -1 -1 -2 -0 -0 -0 -0 -0 -0 -0 -0 -0 -0 -0 -0 -0 -0 -0 -0 -0 -0 -0 -0 -0 -0 -0 -0 -0 -0 -0 -0 -0 -0 -0 -0 -0 -0 -0 -0 -0 -2
-2 -1 -3 -3 -3 -3 -0 -2 -3 -1 -0 -0 -0 -0 -0 -0 -0 -0 -0 -0 -0 -0 -0 -0 -0 -0 -0 -0 -0 -0 -0 -0 -0 -0 -0 -0 -0 -0 -0 -0 -0 -0 -0 -0 -0 -0 -0
-8 -3 -2 -3 -1 -2 -0 -0 -2 -2 -0 -0 -0 -0 -0 -0 -0 -0 -0 -0 -0 -0 -0 -0 -0 -0 -0 -0 -0 -0 -0 -0 -0 -0 -0 -0 -0 -0 -0 -0 -0 -0 -0 -0 -0 -0 -0
-5 -9 -1 -3 -0 -4 -2 -0 -1 -2 -1 -0 -0 -0 -0 -0 -0 -0 -0 -0 -0 -0 -0 -0 -0 -0 -0 -0 -0 -0 -0 -0 -0 -0 -0 -0 -0 -0 -0 -0 -0 -0 -0 -0 -0 -0 -0
-10 -3 -10 -2 -0 -2 -4 -2 -1 -2 -1 -0 -0 -0 -0 -0 -0 -0 -0 -0 -0 -0 -0 -0 -0 -0 -0 -0 -0 -0 -0 -0 -0 -0 -0 -0 -0 -0 -0 -0 -0 -0 -0 -0 -0 -0 -0
-5 -2 -1 -4 -1 -1 -5 -2 -1 -4 -3 -0 -0 -0 -0 -0 -0 -0 -0 -0 -0 -0 -0 -0 -0 -0 -0 -0 -0 -0 -0 -0 -0 -0 -0 -0 -0 -0 -0 -0 -0 -0 -0 -0 -0 -0 -0
-8 -9 -1 -4 -2 -1 -2 -2 -4 -4 -6 -0 -0 -0 -0 -0 -0 -0 -0 -0 -0 -0 -0 -0 -0 -0 -0 -0 -0 -0 -0 -0 -0 -0 -0 -0 -0 -0 -0 -0 -0 -0 -0 -0 -0 -0 -0
Wind_Speed
15 15 16 16 16 16 15 16 18 19 20 20 20 19 19 19 19 20 21 22 22 24 26 27 28 28 26 25 27 29 33 33 31 32 33 33 35 34 40 37 39 48 61 49 48 50 51
14 15 15 15 16 17 17 18 19 20 21 21 21 21 21 21 21 21 20 21 20 23 26 25 24 24 25 29 25 27 30 31 32 34 36 35 34 38 42 43 43 41 51 51 51 53 51
13 13 14 14 16 18 19 15 11 15 18 19 21 21 22 22 22 21 21 20 19 14 17 20 22 23 26 28 24 26 30 30 31 35 37 36 35 38 37 41 37 47 58 56 52 50 52
12 12 13 15 17 19 20 19 15 13 11 13 16 18 20 21 21 22 23 21 12 11 16 20 21 23 25 24 22 28 28 31 32 36 34 34 35 42 43 41 44 46 49 59 58 48 49
11 13 14 15 17 20 21 20 17 13 9 8 8 14 18 20 21 23 23 20 12 17 16 17 22 22 30 26 28 30 26 32 37 36 33 33 35 40 42 46 49 48 58 56 59 45 43
13 13 13 15 19 21 22 22 20 12 8 8 8 10 15 18 20 22 23 22 19 20 20 15 20 24 25 33 29 30 26 30 36 35 32 32 36 43 46 48 63 55 57 56 59 43 47
12 10 12 15 20 22 23 23 22 18 10 11 10 10 13 17 20 21 24 19 20 20 21 21 23 23 24 24 27 27 26 31 32 33 34 32 39 49 49 50 51 53 50 56 50 46 44
17 11 12 15 20 22 23 23 23 21 18 18 16 15 14 15 18 17 23 22 20 17 22 20 18 19 18 22 29 29 28 32 36 40 32 31 40 42 42 46 51 52 54 52 50 43 43
18 15 14 14 21 22 23 23 24 22 20 21 21 20 17 15 15 19 22 22 18 17 19 24 21 24 27 28 30 30 32 30 31 36 31 33 35 30 39 46 48 52 52 51 46 44 47
21 20 17 17 21 23 23 23 23 21 18 17 19 22 21 18 15 17 20 20 16 17 20 25 28 25 27 30 29 25 30 26 25 31 28 24 25 32 37 41 44 52 47 46 46 42 52
24 24 20 21 22 23 24 23 23 17 15 16 18 21 22 20 16 18 16 21 16 18 23 21 24 20 23 34 26 31 29 26 25 28 25 30 35 26 29 32 36 48 45 48 43 46 45
27 25 26 23 24 23 23 22 18 13 12 14 16 19 20 15 16 15 16 17 17 20 23 21 21 25 27 31 27 25 31 33 19 21 29 26 22 21 24 33 34 33 37 39 42 39 50
29 27 27 26 24 24 21 19 16 13 12 14 17 20 16 13 14 19 19 17 19 22 18 22 22 23 25 30 28 30 35 42 41 36 31 27 23 20 23 25 25 25 31 39 43 48 49
30 29 30 26 25 23 21 17 14 13 14 17 20 21 10 9 10 21 17 19 20 18 19 21 20 21 26 30 27 30 29 36 35 30 21 28 24 22 21 19 24 28 25 33 41 42 47
31 30 30 26 24 24 21 18 14 14 15 18 20 15 13 12 11 14 16 18 17 17 20 21 19 23 24 25 25 27 27 31 30 30 28 22 21 19 23 19 16 21 23 27 34 30 35
33 31 30 27 24 24 22 19 15 13 15 16 15 14 12 11 13 13 15 16 15 15 18 19 21 20 23 25 27 27 29 24 28 27 20 9 17 18 16 11 14 8 17 20 27 35 39
32 32 32 30 25 24 23 20 18 14 13 13 13 12 10 10 13 14 14 13 13 14 14 18 18 18 21 25 24 23 24 21 27 24 21 17 20 16 12 15 15 13 14 16 17 25 28
33 33 32 31 26 25 23 21 18 15 12 13 12 13 10 11 12 14 12 12 14 15 15 14 13 16 20 22 21 21 22 22 25 24 22 10 15 14 17 15 17 15 13 14 16 20 22
34 34 34 32 28 26 24 21 19 15 12 11 12 13 13 10 11 10 12 12 13 14 13 16 16 17 17 18 21 19 20 17 24 24 21 16 15 13 12 16 19 20 20 19 18 17 21
37 34 35 34 31 29 25 22 19 16 13 14 14 13 14 13 12 10 11 12 12 10 11 11 13 14 16 19 18 17 18 17 19 18 21 17 17 17 11 5 21 26 27 24 22 21 25
38 36 35 36 32 31 26 23 20 17 13 14 15 15 13 11 10 8 9 10 10 12 8 10 14 13 17 17 18 17 18 18 17 19 20 17 13 13 8 26 25 27 29 29 27 28 27
40 37 36 36 34 32 29 23 22 17 12 17 14 14 14 14 12 5 7 10 7 9 10 10 9 12 15 16 16 18 18 19 16 15 19 17 14 10 8 9 18 29 23 21 22 27 29
42 40 37 36 37 34 30 26 22 18 15 18 17 16 14 15 13 9 7 7 9 10 10 9 10 13 14 14 14 11 9 9 6 8 13 15 16 15 14 10 8 14 23 23 18 19 16
43 40 38 37 37 36 32 29 24 21 19 18 17 15 16 18 13 11 12 4 5 5 7 11 12 13 13 14 16 15 14 12 9 8 12 15 15 17 16 17 15 11 18 19 18 18 20
43 41 39 38 37 36 35 31 27 24 21 21 18 17 16 20 16 16 15 15 15 8 8 11 12 12 11 18 20 21 20 19 17 13 14 12 17 18 19 17 10 12 15 18 25 21 23
43 42 40 38 37 36 36 33 29 26 23 23 22 17 17 17 20 16 14 14 15 12 13 13 13 12 15 17 18 18 18 18 18 17 13 12 13 15 19 19 16 13 18 25 21 17 27
43 41 40 38 37 36 35 35 30 27 24 22 22 18 17 19 19 14 15 13 13 12 13 13 10 13 15 15 15 14 16 15 17 16 18 15 14 12 14 14 12 12 19 20 10 23 37
43 41 39 37 36 35 34 35 31 27 24 22 24 18 18 20 20 16 16 14 14 12 12 13 15 15 14 13 13 13 14 14 16 15 16 15 15 14 16 15 15 16 19 18 19 26 33
43 41 39 37 36 35 34 33 31 27 24 22 24 20 17 20 20 19 20 17 14 14 12 13 14 13 11 13 12 14 15 15 16 17 15 15 12 14 12 12 9 13 15 19 21 32 37
Wind_Direction
21 21 19 9 345 320 290 291 323 328 323 315 307 301 294 291 287 285 285 288 292 304 318 330 337 341 349 341 331 332 326 323 317 310 299 292 283 277 268 267 265 259 253 259 261 259 258
19 20 17 10 357 341 328 329 333 331 321 314 310 304 297 291 287 285 283 285 283 297 343 357 1 3 359 340 352 349 340 332 321 310 297 289 280 277 274 266 260 263 261 261 260 258 258
18 23 18 11 350 328 298 238 193 252 277 288 299 298 296 294 291 287 282 274 268 31 29 21 16 9 358 353 2 351 343 336 330 316 295 289 282 272 273 269 269 263 259 259 258 256 254
22 24 13 354 338 309 285 265 226 205 213 245 267 278 285 286 287 290 286 276 232 53 35 25 23 12 358 5 1 348 342 335 328 316 300 288 283 271 265 267 266 263 260 252 252 255 254
15 2 358 348 328 302 275 255 236 209 166 183 207 256 275 282 289 296 293 279 46 35 35 36 18 13 2 7 359 354 353 341 334 325 303 288 277 268 263 257 257 254 250 250 252 253 254
354 359 1 342 312 292 276 265 243 18 106 158 187 230 262 278 291 301 303 340 20 30 33 43 26 9 9 2 0 355 353 348 336 329 312 286 273 261 254 248 245 247 249 251 250 255 251
349 9 358 339 310 291 283 280 290 339 52 187 205 222 252 276 293 304 323 14 11 21 28 30 20 17 11 13 5 4 4 352 343 329 304 294 269 254 251 249 251 251 253 251 254 255 255
322 350 352 341 310 294 285 286 287 312 334 240 239 244 258 267 283 284 12 28 38 40 24 36 32 23 18 15 8 14 11 358 348 323 311 295 273 263 258 253 249 249 250 253 254 258 254
309 322 337 339 305 292 286 292 290 298 308 279 291 276 266 260 264 35 28 33 55 52 32 31 35 27 20 23 20 18 13 7 359 336 316 294 286 279 259 251 247 247 247 248 254 258 259
298 301 314 321 301 286 291 290 290 297 312 334 331 310 294 273 54 55 32 35 55 48 25 21 25 31 28 25 28 29 22 19 13 351 332 317 306 286 264 252 247 247 247 250 254 255 248
287 288 299 299 294 288 285 286 283 315 330 334 328 318 314 331 28 25 47 24 58 40 16 27 28 36 33 29 30 29 27 26 16 4 348 312 293 294 272 256 254 249 251 249 254 254 258
280 282 281 290 286 288 290 292 304 329 345 349 339 325 317 11 6 37 43 44 46 26 17 29 34 29 33 31 35 34 30 32 35 25 340 340 341 314 301 265 258 256 251 248 251 255 249
275 276 278 280 286 286 294 301 312 328 340 346 327 300 357 19 23 4 19 36 21 18 33 25 28 28 35 30 33 33 30 28 28 9 322 326 331 329 323 277 257 255 244 240 242 240 242
272 271 271 276 280 284 289 304 313 319 323 315 298 288 52 99 63 334 19 18 14 29 28 26 32 33 33 31 36 33 35 34 35 35 36 338 315 313 309 307 259 254 244 238 238 239 244
268 268 268 272 277 279 284 291 306 311 313 310 301 333 5 50 96 25 17 9 21 32 25 25 33 33 33 33 36 35 39 38 37 37 37 17 339 293 304 290 281 251 252 256 249 253 249
264 264 264 268 271 274 278 282 293 305 308 313 322 330 359 49 51 39 16 15 26 35 27 33 32 38 31 33 35 36 37 44 36 39 43 38 22 306 323 320 348 295 278 253 245 244 245
261 260 260 263 266 270 272 276 281 292 306 319 323 334 354 20 18 13 10 20 31 35 40 33 35 39 32 31 35 39 39 47 39 39 48 63 36 328 297 335 335 303 308 276 263 251 248
259 257 257 258 261 264 267 271 275 280 294 304 313 320 342 355 358 1 13 21 16 17 34 37 42 38 35 32 37 44 43 45 42 43 50 52 79 94 331 304 345 317 308 291 279 269 256
257 254 253 253 256 259 262 264 268 272 279 292 299 311 322 341 344 356 5 9 14 14 19 22 26 32 36 34 36 42 44 47 40 43 53 59 68 81 89 338 314 317 293 283 280 281 260
253 251 250 249 251 253 256 259 261 264 270 282 293 302 305 316 331 351 3 6 11 33 30 30 32 32 31 29 42 39 35 46 38 44 52 63 71 67 76 111 328 301 291 292 286 283 272
249 248 247 246 246 247 251 254 254 257 260 272 284 294 303 313 311 331 353 9 16 11 47 47 29 31 24 28 27 37 33 33 35 55 48 54 70 75 71 306 315 315 303 291 284 282 277
247 245 244 243 242 243 246 247 249 248 249 264 278 290 292 302 314 324 336 350 5 13 19 19 18 27 22 20 25 23 27 30 42 47 37 53 60 54 58 67 7 303 314 316 309 293 278
243 242 241 240 240 240 242 243 243 239 240 264 271 285 291 295 299 309 320 343 360 12 15 26 22 10 10 16 20 26 22 19 20 30 39 53 52 46 59 54 73 58 341 322 319 323 307
240 238 238 238 238 237 239 240 239 236 236 264 268 279 282 285 288 293 318 314 344 1 5 12 14 5 13 21 14 14 18 33 60 68 64 58 52 52 49 48 61 87 1 357 346 334 313
236 236 236 235 234 234 236 238 237 237 236 255 270 270 277 281 286 289 294 308 320 344 348 355 1 5 29 6 3 11 20 26 37 54 58 75 55 47 44 43 46 71 34 351 328 324 324
233 233 233 232 232 232 233 236 234 237 238 247 260 272 275 281 284 293 293 302 313 325 333 346 11 29 13 4 3 6 13 21 23 32 51 59 50 42 35 34 40 52 13 337 340 324 321
229 230 229 229 230 230 231 233 233 234 237 244 255 263 272 274 289 296 289 295 315 327 336 348 3 359 6 359 356 3 8 20 18 24 28 35 35 30 27 29 28 34 10 355 10 320 301
226 226 225 226 227 228 229 230 232 232 234 241 249 258 265 272 283 289 294 296 304 315 322 342 344 346 355 1 3 2 5 12 9 11 17 23 25 23 25 23 19 29 13 8 345 329 320
223 222 223 223 224 226 227 227 230 229 230 239 250 255 266 272 285 288 289 293 297 306 318 327 335 350 5 3 2 358 354 1 1 0 9 5 19 16 20 16 16 358 353 346 344 327 315